Aswan, Egypt

7:13 PM EET on September 21, 2017 (GMT +0200)
Aswan

Weather History for HESN - January, 2013

Change the Weather History Date:

Wednesday, January 23, 2013

  Actual Average Record
Temperature  
Mean Temperature 76 °F -  
Max Temperature 88 °F 74 °F 88 °F (2013)
Min Temperature 64 °F 51 °F 42 °F (2002)
Cooling Degree Days 11    
Growing Degree Days 26 (Base 50)    
Moisture  
Dew Point 34 °F    
Average Humidity 21    
Maximum Humidity 43    
Minimum Humidity 8    
Precipitation  
Precipitation 0.00 in 0.00 in - ()
Sea Level Pressure  
Sea Level Pressure 30.03 in    
Wind  
Wind Speed 8 mph ()    
Max Wind Speed 14 mph    
Max Gust Speed -    
Visibility 6.0 miles    
Events      
Averages and records for this station are not official NWS values.
T = Trace of Precipitation, MM = Missing Value Source: Averaged Metar Reports

Daily Weather History Graph

Daily Weather History Graph

Search for Another Location

Airport or City:

Trip Planner

Search our weather history database for the weather conditions in past years. The results will help you decide how hot, cold, wet, or windy it might be!

Date:

Astronomy

Jan. 23, 2013 Rise Set
Actual Time 6:32 AM EET 5:28 PM EET
Civil Twilight 6:08 AM EET 5:52 PM EET
Nautical Twilight 5:41 AM EET 6:20 PM EET
Astronomical Twilight 5:14 AM EET 6:47 PM EET
Moon 2:27 PM EET (1/23) 3:22 AM EET (1/23)
Length of Visible Light 11h 44m
Length of Day
10h 56m
Waxing Gibbous, 87% of the Moon is Illuminated
Jan 23
Waxing Gibbous
Jan 27
Full
Feb 3
Last Quarter
Feb 10
New
Feb 17
First Quarter

Hourly Weather History & Observations

Time (EET) Temp. Dew Point Humidity Pressure Visibility Wind Dir Wind Speed Gust Speed Precip Events Conditions
12:00 AM 73.4 °F 44.6 °F 36% 30.04 in - North 8.1 mph - N/A   Clear
1:00 AM 71.6 °F 41.0 °F 33% 30.04 in - North 9.2 mph - N/A   Clear
2:00 AM 71 °F 38 °F 19% 30.02 in 6 mi North 6.9 mph - -  
2:00 AM 71.6 °F 37.4 °F 29% 30.04 in - North 6.9 mph - N/A   Clear
3:00 AM 69.8 °F 37.4 °F 31% 30.04 in - North 5.8 mph - N/A   Clear
4:00 AM 68.0 °F 37.4 °F 33% 30.04 in - North 5.8 mph - N/A   Clear
5:00 AM 68.0 °F 26.6 °F 21% 30.01 in - North 9.2 mph - N/A   Clear
6:00 AM 68.0 °F 26.6 °F 21% 30.04 in - North 8.1 mph - N/A   Clear
7:00 AM 64.4 °F 24.8 °F 22% 30.04 in - North 10.4 mph - N/A   Clear
8:00 AM 67 °F 20 °F 8% 30.04 in 6 mi North 11.5 mph - -  
8:00 AM 68.0 °F 44.6 °F 43% 30.04 in - North 11.5 mph - N/A   Clear
9:00 AM 71.6 °F 26.6 °F 19% 30.06 in - North 13.8 mph - N/A   Clear
10:00 AM 75.2 °F 30.2 °F 19% 30.06 in - North 13.8 mph - N/A   Clear
11:00 AM 78.8 °F 33.8 °F 20% 30.04 in - North 11.5 mph - N/A   Clear
12:00 PM 82.4 °F 32.0 °F 16% 30.01 in - North 11.5 mph - N/A   Clear
1:00 PM 84.2 °F 35.6 °F 18% 29.98 in - North 9.2 mph - N/A   Clear
2:00 PM 86 °F 37 °F 10% 29.96 in 6 mi North 9.2 mph - -  
2:00 PM 86.0 °F 37.4 °F 18% 29.98 in - North 9.2 mph - N/A   Clear
3:00 PM 87.8 °F 37.4 °F 17% 29.98 in - WSW 8.1 mph - N/A   Clear
4:00 PM 87.8 °F 35.6 °F 16% 30.01 in - North 9.2 mph - N/A   Clear
5:00 PM 86.0 °F 35.6 °F 17% 30.01 in - North 9.2 mph - N/A   Clear
6:00 PM 82.4 °F 33.8 °F 17% 30.01 in - NNW 12.7 mph - N/A   Clear
7:00 PM 78.8 °F 30.2 °F 17% 30.04 in - North 11.5 mph - N/A   Clear
8:00 PM 76 °F 30 °F 10% 30.03 in 6 mi North 9.2 mph - -  
8:00 PM 75.2 °F 30.2 °F 19% 30.04 in - North 9.2 mph - N/A   Clear
9:00 PM 73.4 °F 30.2 °F 20% 30.06 in - North 9.2 mph - N/A   Clear
10:00 PM 71.6 °F 30.2 °F 22% 30.06 in - North 10.4 mph - N/A   Clear
11:00 PM 69.8 °F 33.8 °F 27% 30.04 in - North 9.2 mph - N/A   Clear